TimeCDT,TemperatureF,Dew PointF,Humidity,Sea Level PressureIn,VisibilityMPH,Wind Direction,Wind SpeedMPH,Gust SpeedMPH,PrecipitationIn,Events,Conditions,WindDirDegrees,DateUTC
12:15 AM,63.9,59.5,86,30.20,10.0,Calm,Calm,-,N/A,,Clear,0,2013-05-25 05:15:00
12:35 AM,64.4,58.5,81,30.19,10.0,Calm,Calm,-,N/A,,Clear,0,2013-05-25 05:35:00
12:55 AM,65.3,57.7,76,30.20,10.0,Calm,Calm,-,N/A,,Clear,0,2013-05-25 05:55:00
1:15 AM,64.6,58.3,80,30.20,10.0,Calm,Calm,-,N/A,,Clear,0,2013-05-25 06:15:00
1:35 AM,65.1,57.6,76,30.20,10.0,Calm,Calm,-,N/A,,Clear,0,2013-05-25 06:35:00
1:55 AM,65.3,57.2,75,30.19,10.0,Calm,Calm,-,N/A,,Clear,0,2013-05-25 06:55:00
2:15 AM,65.7,56.7,73,30.18,10.0,Calm,Calm,-,N/A,,Clear,0,2013-05-25 07:15:00
2:35 AM,65.7,56.7,73,30.18,10.0,Calm,Calm,-,N/A,,Clear,0,2013-05-25 07:35:00
2:55 AM,65.7,56.5,72,30.18,10.0,Calm,Calm,-,N/A,,Clear,0,2013-05-25 07:55:00
3:15 AM,65.3,56.5,73,30.19,10.0,Calm,Calm,-,N/A,,Clear,0,2013-05-25 08:15:00
3:35 AM,64.4,56.8,76,30.19,10.0,Calm,Calm,-,N/A,,Clear,0,2013-05-25 08:35:00
3:55 AM,64.4,56.7,76,30.20,10.0,Calm,Calm,-,N/A,,Clear,0,2013-05-25 08:55:00
4:15 AM,63.9,56.5,77,30.20,10.0,Calm,Calm,-,N/A,,Clear,0,2013-05-25 09:15:00
4:35 AM,63.5,56.3,77,30.20,10.0,Calm,Calm,-,N/A,,Clear,0,2013-05-25 09:35:00
4:55 AM,63.5,55.8,76,30.21,10.0,Calm,Calm,-,N/A,,Clear,0,2013-05-25 09:55:00
5:15 AM,63.5,55.6,75,30.22,10.0,Calm,Calm,-,N/A,,Clear,0,2013-05-25 10:15:00
5:35 AM,63.5,55.4,75,30.22,10.0,Calm,Calm,-,N/A,,Clear,0,2013-05-25 10:35:00
5:55 AM,63.5,55.4,75,30.23,10.0,Calm,Calm,-,N/A,,Clear,0,2013-05-25 10:55:00
6:15 AM,63.5,55.4,75,30.23,10.0,Calm,Calm,-,N/A,,Clear,0,2013-05-25 11:15:00
6:35 AM,63.3,55.6,76,30.24,10.0,Calm,Calm,-,N/A,,Clear,0,2013-05-25 11:35:00
6:55 AM,63.7,55.4,74,30.24,10.0,Calm,Calm,-,N/A,,Clear,0,2013-05-25 11:55:00
7:15 AM,64.8,56.1,74,30.24,10.0,Calm,Calm,-,N/A,,Clear,0,2013-05-25 12:15:00
7:35 AM,66.9,55.8,67,30.24,10.0,Calm,Calm,-,N/A,,Clear,0,2013-05-25 12:35:00
7:55 AM,68.0,55.8,65,30.25,10.0,Calm,Calm,-,N/A,,Clear,0,2013-05-25 12:55:00
8:15 AM,69.3,55.8,62,30.25,10.0,Calm,Calm,-,N/A,,Clear,0,2013-05-25 13:15:00
8:35 AM,70.9,55.4,58,30.26,10.0,East,3.5,-,N/A,,Clear,90,2013-05-25 13:35:00
8:55 AM,72.7,55.2,54,30.27,10.0,East,4.6,-,N/A,,Clear,100,2013-05-25 13:55:00
9:15 AM,74.3,55.0,51,30.27,10.0,Calm,Calm,-,N/A,,Clear,0,2013-05-25 14:15:00
9:35 AM,74.3,54.9,51,30.27,10.0,Calm,Calm,-,N/A,,Clear,0,2013-05-25 14:35:00
9:55 AM,76.1,55.9,50,30.26,10.0,Calm,Calm,-,N/A,,Clear,0,2013-05-25 14:55:00
10:15 AM,76.3,54.9,47,30.26,10.0,Calm,Calm,-,N/A,,Clear,0,2013-05-25 15:15:00
10:35 AM,78.6,57.0,47,30.25,10.0,Calm,Calm,-,N/A,,Clear,0,2013-05-25 15:35:00
10:55 AM,78.4,55.0,44,30.25,10.0,ESE,3.5,-,N/A,,Clear,110,2013-05-25 15:55:00
11:15 AM,78.6,55.6,45,30.25,10.0,Calm,Calm,-,N/A,,Clear,0,2013-05-25 16:15:00
11:35 AM,78.8,55.8,45,30.25,10.0,Calm,Calm,-,N/A,,Clear,0,2013-05-25 16:35:00
11:55 AM,79.2,55.4,44,30.25,10.0,Calm,Calm,-,N/A,,Clear,0,2013-05-25 16:55:00
12:15 PM,80.8,55.6,42,30.24,10.0,Calm,Calm,-,N/A,,Clear,0,2013-05-25 17:15:00
12:35 PM,81.5,57.0,43,30.23,10.0,Calm,Calm,-,N/A,,Clear,0,2013-05-25 17:35:00
12:55 PM,81.9,56.8,42,30.23,10.0,Calm,Calm,-,N/A,,Clear,0,2013-05-25 17:55:00
1:15 PM,83.3,58.1,42,30.22,10.0,Calm,Calm,-,N/A,,Clear,0,2013-05-25 18:15:00
1:35 PM,83.3,58.5,43,30.22,10.0,Calm,Calm,-,N/A,,Clear,0,2013-05-25 18:35:00
1:55 PM,83.8,59.5,44,30.22,10.0,Calm,Calm,-,N/A,,Clear,0,2013-05-25 18:55:00
2:15 PM,84.6,59.7,43,30.20,10.0,Calm,Calm,-,N/A,,Clear,0,2013-05-25 19:15:00
2:35 PM,84.6,61.5,46,30.21,10.0,Calm,Calm,-,N/A,,Clear,0,2013-05-25 19:35:00
2:55 PM,84.7,61.3,45,30.20,10.0,Calm,Calm,-,N/A,,Clear,0,2013-05-25 19:55:00
3:15 PM,84.4,62.6,48,30.20,10.0,Calm,Calm,-,N/A,,Clear,0,2013-05-25 20:15:00
3:35 PM,86.2,62.6,45,30.20,10.0,Calm,Calm,-,N/A,,Clear,0,2013-05-25 20:35:00
3:55 PM,85.5,62.4,46,30.19,10.0,Calm,Calm,-,N/A,,Clear,0,2013-05-25 20:55:00
4:15 PM,86.2,63.0,46,30.18,10.0,Calm,Calm,-,N/A,,Clear,0,2013-05-25 21:15:00
4:35 PM,85.6,62.8,46,30.18,10.0,Calm,Calm,-,N/A,,Clear,0,2013-05-25 21:35:00
4:55 PM,85.5,63.3,47,30.17,10.0,Calm,Calm,-,N/A,,Clear,0,2013-05-25 21:55:00
5:15 PM,86.0,63.0,46,30.16,10.0,Calm,Calm,-,N/A,,Clear,0,2013-05-25 22:15:00
5:35 PM,86.4,62.4,45,30.16,10.0,Calm,Calm,-,N/A,,Clear,0,2013-05-25 22:35:00
5:55 PM,86.2,61.7,44,30.16,10.0,Calm,Calm,-,N/A,,Clear,0,2013-05-25 22:55:00
6:15 PM,86.2,62.8,45,30.15,10.0,Calm,Calm,-,N/A,,Clear,0,2013-05-25 23:15:00
6:35 PM,85.6,63.9,48,30.14,10.0,Calm,Calm,-,N/A,,Clear,0,2013-05-25 23:35:00
6:55 PM,83.1,64.2,53,30.13,10.0,Calm,Calm,-,N/A,,Clear,0,2013-05-25 23:55:00
7:15 PM,82.4,65.8,57,30.13,10.0,Calm,Calm,-,N/A,,Clear,0,2013-05-26 00:15:00
7:35 PM,79.0,65.8,64,30.13,10.0,Calm,Calm,-,N/A,,Clear,0,2013-05-26 00:35:00
7:55 PM,76.5,65.8,70,30.14,10.0,Calm,Calm,-,N/A,,Clear,0,2013-05-26 00:55:00
8:15 PM,75.4,64.2,68,30.14,10.0,Calm,Calm,-,N/A,,Clear,0,2013-05-26 01:15:00
8:35 PM,73.8,65.3,75,30.15,10.0,Calm,Calm,-,N/A,,Clear,0,2013-05-26 01:35:00
8:55 PM,72.9,64.4,75,30.15,10.0,Calm,Calm,-,N/A,,Clear,0,2013-05-26 01:55:00
9:15 PM,71.8,63.9,76,30.15,10.0,Calm,Calm,-,N/A,,Clear,0,2013-05-26 02:15:00
9:35 PM,70.7,63.9,79,30.16,10.0,Calm,Calm,-,N/A,,Clear,0,2013-05-26 02:35:00
9:55 PM,71.1,63.3,76,30.17,10.0,Calm,Calm,-,N/A,,Clear,0,2013-05-26 02:55:00
10:15 PM,70.7,62.4,75,30.17,10.0,Calm,Calm,-,N/A,,Clear,0,2013-05-26 03:15:00
10:35 PM,69.8,63.1,79,30.17,10.0,Calm,Calm,-,N/A,,Clear,0,2013-05-26 03:35:00
10:55 PM,70.3,62.2,75,30.17,10.0,Calm,Calm,-,N/A,,Clear,0,2013-05-26 03:55:00
11:15 PM,70.9,61.7,73,30.17,10.0,Calm,Calm,-,N/A,,Clear,0,2013-05-26 04:15:00
11:35 PM,70.7,60.8,71,30.15,10.0,Calm,Calm,-,N/A,,Clear,0,2013-05-26 04:35:00
11:55 PM,69.6,61.3,75,30.15,10.0,Calm,Calm,-,N/A,,Clear,0,2013-05-26 04:55:00